Terminal Aerodrome Forecast
Issued by NWS

Home | Current Version | Previous Version | Text Only | Print | Product List | Glossary On
Versions: 1 2 3 4 5 6 7 8 9 10 11 12 13 14 15 16 17 18 19 20 21 22 23 24 25 26 27 28 29 30 31
155
FTAK31 PANC 081134
TAFAVD
TAF
PAVD 081134Z 0812/0912 VRB04KT 3SM -SN BR FEW007 OVC013
      TEMPO 0812/0815 1SM -SN BR BKN007
     FM090000 VRB03KT P6SM VCSH SCT025 BKN060
      AMD LTD TO CLD VIS AND WIND=

USA.gov is the U.S. government's official web portal to all federal, state and local government web resources and services.